Tracking 29892 objects as of 21-Nov-2024
HD Live streaming from Space Station
objects crossing your sky now

ARIANE 5 R/B

Track ARIANE 5 R/B now!


NORAD ID: 37266
Int'l Code: 2010-070C
Perigee: 284.0 km
Apogee: 32,362.8 km
Inclination: 3.5 °
Period: 567.1 minutes
Semi major axis: 22694 km
RCS: 24.3048 m2 (large)
Launch date: December 29, 2010
Source: France (FR)
Launch site: FRENCH GUIANA (FRGUI)

Note: This is a ROCKET BODY
Your satellite tracking list
Your tracking list is empty




NASA's NSSDC Master Catalog

Two Line Element Set (TLE):
1 37266U 10070C   24325.47940478  .00001870  00000-0  79854-3 0  9993
2 37266   3.4593 130.8258 7067571 357.7753   0.1897  2.53936555122213
Source of the keplerian elements: AFSPC